Regional Weather Roundup
Issued by NWS Wakefield, VA

Home | Current Version | Previous Version | Graphics & Text | Print | Product List | Glossary On
Versions: 1 2 3 4 5 6 7 8 9 10 11 12 13 14 15 16 17 18 19 20 21 22 23 24 25 26 27 28 29 30 31 32 33 34 35 36 37 38 39 40 41 42 43 44 45 46 47 48 49 50
000
ASUS41 KAKQ 272010
RWRAKQ

REGIONAL WEATHER ROUNDUP
NATIONAL WEATHER SERVICE WAKEFIELD VA
300 PM EST TUE JAN 27 2015

Note: "fair" indicates few or no clouds below 12,000 feet with no
significant weather and/or obstructions to visibility. * = Denotes
station may not report precipitation (e.g., rain,snow,etc.),
thunder or fog.

VAZ042-051-052>054-056-272100-
NORTHERN VIRGINIA

CITY           SKY/WX    TMP DP  RH WIND       PRES   REMARKS
WASH NATIONAL  PTSUNNY   36  23  59 NW15G23   29.81S
DULLES         PTSUNNY   31  22  69 NW17G23   29.82R WCI  19
FORT BELVOIR   CLOUDY    33  23  65 NW16G25   29.82R WCI  23
QUANTICO       PTSUNNY   35  23  61 N17G28    29.83R WCI  25
FREDERICKSBRG* PTSUNNY   36  25  63 N8G21     29.81R
STAFFORD*      MOSUNNY   34  25  68 NW18      29.85R WCI  23
WARRENTON      CLOUDY    36  29  77 N14G20    29.81R
CULPEPER*      PTSUNNY   36  25  64 N12G23    29.82R
MANASSAS*      PTSUNNY   34  25  69 MISG      29.82S
LEESBURG*      CLOUDY    32  28  86 NW12G18   29.83R WCI  23
WINCHESTER     MIX PCPN  32  21  64 NW18G24   29.83R WCI  20
FRONT ROYAL*   CLOUDY    32  23  69 NW8       29.82S
LURAY*         CLOUDY    32  25  74 CALM      29.83R
$$

VAZ048-049-060>072-079>083-272100-
CENTRAL AND SOUTH CENTRAL VIRGINIA

CITY           SKY/WX    TMP DP  RH WIND       PRES   REMARKS
RICHMOND       CLOUDY    38  25  59 NW12      29.79R
CHESTERFIELD*  CLOUDY    36  21  55 NW16      29.80S
PETERSBURG*    FLURRIES  36  29  76 NW9       29.80S
HANOVER        CLOUDY    36  23  59 N8G18     29.80S
TAPPAHANNOCK*  MOSUNNY   36  22  57 NW6       29.79S
QUINTON*       CLOUDY    36  25  64 NW7       29.78S
CHARLOTTSVILLE PTSUNNY   34  20  56 NW9       29.80R
GORDONSVILLE*  CLOUDY    35  26  70 N6        29.80R
ORANGE*        CLOUDY    36  27  69 N7        29.82R
LOUISA*        CLOUDY    36  28  75 NW7       29.79R
BUMPASS*       CLOUDY    35  24  64 NW5       29.79R
FARMVILLE*     CLOUDY    43  26  49 NE8       29.78S
CREWE*         CLOUDY    36  27  69 N3        29.79S
FORT PICKETT*  CLOUDY    35  30  83 N3        29.79S
CHASE CITY*    FAIR      43  20  39 W8        29.78R
CLARKSVILLE*   FAIR      41  19  42 W7        29.78S
SOUTH HILL*    CLOUDY    37  27  68 N6        29.84S
LAWRENCEVILLE* CLOUDY    35  29  79 N10G16    29.79S
EMPORIA*       FLURRIES  32  30  93 W8        29.82R
$$

VAZ088>098-272100-
SOUTHEAST VIRGINIA

CITY           SKY/WX    TMP DP  RH WIND       PRES   REMARKS
NORFOLK        MOSUNNY   38  26  62 NW12      29.75R
VIRGINIA BEACH PTSUNNY   38  29  70 NW20      29.74S
NORFOLK NAVAL  MOSUNNY   40  27  59 NW12      29.77R
WEST POINT*    PTSUNNY   39  25  56 NW7       29.79S
SALUDA*        FAIR      36  26  67 NW12G21   29.76S
NEWPORT NEWS   PTSUNNY   39  26  59 NW12      29.77R
LANGLEY AFB    MOSUNNY   37  26  66 NW14      29.76R
FORT EUSTIS    MOSUNNY   37  28  69 N8        29.75S
WILLIAMSBURG*    N/A     41  30  65 N9        29.78S
HR EXEC AP*    MOCLDY    36  25  64 NW5       29.79R
FRANKLIN*      CLOUDY    34  28  77 NW12      29.79R
WAKEFIELD      CLOUDY    36  26  67 NW7       29.78S
$$

VAZ020-022-025-037-045-272100-
WEST CENTRAL AND SOUTHWEST VIRGINIA

CITY           SKY/WX    TMP DP  RH WIND       PRES   REMARKS
STAUNTON*      MOSUNNY   34  20  56 NE12      29.82R
WAYNESBORO*    MOCLDY    32  22  66 N8        29.78R
HOT SPRINGS VA SUNNY     24  10  54 NW16G23   29.65S WCI  11
LYNCHBURG      SUNNY     41   6  23 VRB6      29.78F
DANVILLE       SUNNY     45  11  25 N15       29.80S
SOUTH BOSTON*  FAIR      42   7  23 NW8       29.80R
MARTINSVILLE   SUNNY     44   7  22 NW14      29.83S
ROANOKE        SUNNY     41   4  21 W15G21    29.81S
BLACKSBURG     SUNNY     33   1  25 NW17G23   29.82S WCI  22
DUBLIN*        SUNNY     36   4  26 NW10G16   29.82R
MARION*        SUNNY     33  12  41 W15G24    29.85R WCI  23
HILLSVILLE*    SUNNY     32   5  32 NW21G28   29.77S WCI  20
RICHLANDS*     FAIR      30  10  42 NW9       29.86R
WISE*          PTSUNNY   30  18  59 NW12      29.90R WCI  21
ABINGDON*      MOSUNNY   33  16  48 NW9G16    29.89S
$$

MDZ021>025-VAZ099-100-272100-
SOUTHERN MARYLAND AND THE DELMARVA PENINSULA

CITY           SKY/WX    TMP DP  RH WIND       PRES   REMARKS
PATUXENT RIVER MOSUNNY   34  24  67 NW21      29.76R WCI  22
BAY BRIDGE APT   N/A     34  21  60 NW13      29.77R WCI  25
LEONARDTOWN    PTSUNNY   34  25  69 W8G16     29.78R
DOVER          MOSUNNY   34  23  63 NW18      29.72R WCI  23
GEORGETOWN     CLOUDY    34  24  67 NW8       29.72R
EASTON         MOSUNNY   37  27  65 NW14G22   29.78S
CAMBRIDGE      PTSUNNY   36  27  69 N14       29.74S
SALISBURY      CLOUDY    35  26  69 NW15      29.73R
OCEAN CITY     CLOUDY    32  25  75 N12       29.71S WCI  23
WALLOPS ISLAND CLOUDY    33  26  75 NW14G22   29.73R WCI  23
ACCOMACK*      CLOUDY    34  27  75 NW14G23   29.74R WCI  24
$$

NCZ012>017-030>032-272100-
NORTH CENTRAL AND EASTERN NORTH CAROLINA

CITY           SKY/WX    TMP DP  RH WIND       PRES   REMARKS
ROANOKE RAPIDS CLOUDY    37  28  70 NW9       29.80R
RALEIGH        MOSUNNY   44  16  32 NW9       29.80S
ELIZABETH CITY CLOUDY    35  28  75 NW13      29.77R
AHOSKIE*       CLOUDY    33  28  80 N7        29.80S
EDENTON*       CLOUDY    34  30  84 N12       29.78R
CURRITUCK*     CLOUDY    36  28  72 NW7       29.76R
KILL DEVIL HLS CLOUDY    34  30  85 NW8G18    29.73S
MANTEO         CLOUDY    34  28  80 NW7G18    29.75R
CAPE HATTERAS  CLOUDY    35  32  88 NW9G17    29.74R
TARBORO*       CLOUDY    40  29  65 NW7       29.81S
GOLDSBORO      PTSUNNY   41  34  76 N7        29.79S
WASHINGTON     MIX PCPN  35  29  78 N7        29.79S
GREENVILLE     CLOUDY    37  28  70 N12G20    29.83R
NEW BERN       CLOUDY    39  27  62 NW9       29.80R
WILMINGTON     CLOUDY    41  30  65 NW8       29.81R
$$

VAZ048-272100-
ELSEWHERE

CITY           SKY/WX    TMP DP  RH WIND       PRES   REMARKS
HARRISBURG PA  PTSUNNY   31  15  52 NW18      29.78F WCI  19
BALTIMORE      MOSUNNY   36  22  56 NW16G23   29.77R
ANNAPOLIS      PTSUNNY   36  21  54 NW13G22   29.77R
ANDREWS AFB    MOSUNNY   33  24  67 NW15G23   29.78R WCI  23
PHILADELPHIA   PTSUNNY   34  11  38 N21       29.71S WCI  22
HENDERSON NC   SUNNY     42  13  31 N9        29.78S
GREENSBORO     MOSUNNY   44   8  23 NW12      29.79S
ROCKY MOUNT    CLOUDY    38  27  64 N8        29.81S
$$

VAZ100-272100-
MARINE

STATION/POSITION TIME  TEMP    WIND        PRES    WAVE   SWELL
                       AIR SEA DIR/SP/G            HT/PER HT/PER
                 (UTC) (F)     (DEG/KT/KT) (MB)    (FT/S) (FT/S)
BRANDYWINE LGT   2000   33 37  340/ 21/ 24 1005.7R
CAPE MAY NJ      2000   33 38  280/  4/ 15 1005.0F
LEWES DE         2000   33 36  330/ 18/ 21 1005.9R
15NM E FENWICK I 2000   33 42              1004.5R  11/13
OCEAN-CITY-INLET 2000   33 39  360/ 13/ 18 1005.4F
WACHAPREAGUE VA  2000   34 40  330/  9/ 17 1006.9R
THOMAS POINT MD  2000   35 37  320/ 17/ 19 1008.9R
GOOSES REEF MD   2000   35     VRB 16/ 19  1006.7S
COVE POINT MD    2000   33     340/ 19/ 21 1007.4R
SOLOMONS ISLAND  2000      38                N/A
BISHOPS HEAD MD  2000   34 37  310/ 17/ 22 1006.9R
PINEY POINT MD   2000          340/ 19/ 21   N/A
POTOMAC MD       2000   35     320/ 16/ 17 1006.8R
CAMBRIDGE MD     2000   35 36  320/ 13/ 18 1007.1S
LEWISETTA VA     2000   35 38  330/ 13/ 19 1007.9R
RAPPAHANNOCK LGT 2000          320/ 20/ 22 1007.7R
STINGRAY PT      2000   36     330/ 14/ 17 1008.1S
YORK RVR RNG VA  2000   36     320/ 14/ 18 1006.9S
JAMESTOWN VA     2000   35     350/ 10/ 14   N/A
DOMINION TERM VA 2000   35     320/ 17/ 20 1007.4F
KIPTOPEKE VA     2000      45  340/ 21/ 23   N/A
CHES BAY BRIDGE  2000   36 41  320/ 16/ 20 1007.0R
CAPE HENRY VA    2000   35     320/ 18/ 21 1006.0R
CHESAPEAKE LGHT  1900   35     340/ 21/ 24 1007.0R
WILLOUBY STN VA  2000   36     330/ 12/ 14 1008.0R
S CRANEY ISL VA  2000          320/ 12/ 22 1007.5R
CAPE HENRY BUOY  2000      45                N/A     7/14   3/14
1ST LANDING BUOY 2000   36     320/ 17/ 23 1007.0R
CAPE CHARLES BUO 2000      42                N/A     6/13   7/13
OFFSHORE WE BUOY 2000      46                N/A     9/13   8/13
64NM E OF VA BCH 2000   37 51  340/ 21/ 27 1004.9R  14/13  11/13
DUCK PIER NC     2000   34 43  340/ 17/ 20 1006.1S
44100 DUCK FRF   2000      46                N/A    11/14   8/14
44056 DUCK FRF   2000      44                N/A     9/13   7/13
OREGON INLET NC  2000   35 45  320/ 14/ 18 1006.9R
HATTERAS NC      2000   36 48  330/ 16/ 21 1007.3R
DIAMOND SHLS NC  2000   38 70  330/ 19/ 25 1006.1R  10/13   8/13



USA.gov is the U.S. government's official web portal to all federal, state and local government web resources and services.